Location: Colorado Springs
(38.8340°N, 104.8210°W)
Time: 05:50:40
(UTC-06:00)

Envisat - Pass Details

Date: 15 October 2017
Orbit: 764 x 766 km, 98.2° (Epoch: 23 October)

Event Time Altitude Azimuth Distance (km) Brightness Sun altitude
Exits shadow 19:23:15 14° 57° (ENE) 2,065 4.7 -13.0°
Drops below altitude 10° 19:25:20 10° 33° (NNE) 2,308 5.2 -13.4°
Sets 19:28:47 0° 8° (N) 3,239 6.2 -14.1°
